Terminal Aerodrome Forecast
Issued by NWS

Home | Current Version | Previous Version | Text Only | Print | Product List | Glossary On
Versions: 1 2 3 4 5 6 7 8 9 10 11 12 13 14 15 16 17 18 19 20 21 22 23 24 25 26 27 28 29 30 31 32 33 34 35 36 37 38 39 40 41 42 43 44
380
FTUS43 KDTX 230522
TAFPTK
TAF
KPTK 230522Z 2306/2406 33004KT 6SM HZ SKC
     FM230800 VRB04KT 3SM BR SKC
     FM231300 28005KT P6SM SKC=

USA.gov is the U.S. government's official web portal to all federal, state and local government web resources and services.